PSLV R/B, 43287

Orbit data source: Space-Track

PSLV R/B, 43287 is space debris in HEO originally from a launch on Wed, 11 Apr 2018 UTC launched from the Sirharikota (SRI). Debris objects in space refer to the collection of defunct objects orbiting the Earth. Examples of debris include non-operational satellites, rocket bodies, and fragments generated from explosions, collisions, or faulty payload assembly.

Loading next visibility...
Identifier
43287, 2018-035B
Orbit
HEO
Country
Flag of ININ / IND
Related business
Manufacturer
VSSC/LPSC
Mission
Spacecraft
Bus & Motor
PS-4, Unknown motor
Mass
920 kg wet, 920 kg dry
Launch date (UTC)
2018-04-11 (8 years ago)
Launch vehicle
Unknown
Launch site
Sirharikota (SRI)
Object type
Payload
Rocket body
Debris
Shape & HBR
Cyl + Cyl + 2 Nozzle, 1.5 m
Radar Cross Section
3.727 m², Large (>1 m²)

Expand to show TLE details & history
Last TLE update: 2 days ago

TLE from 2 days ago
0 PSLV R/B
1 43287U 18035B   26171.00696298  .00023418  00000-0  10156-2 0  9991
2 43287  19.1100  72.1303 5610165 210.3343  99.8076  4.71181809126382
Epoch: 2026-06-20T00:10Z
TLE epoch observation values (Epoch: 2026-06-20T00:10:01.601Z)
Latitude
0.00003°
Longitude
161.40107°
Altitude
13,595.005 km
Speed
3.66 km/s
True Right ascension
04h 48m 32s
True Declination
0° 00' 00"
Sunlit
Object was in daylight at epoch
Visualization orbit readout
Latitude
Unknown
Longitude
Unknown
Altitude
Unknown
Speed
Unknown
Apparent Right ascension
Unknown
Apparent Declination
Unknown
Sunlit
N/A
Visualization observer readout
Local Sidereal Time
22:01:04
Azimuth
Unknown
Elevation
Unknown
Doppler factor
Unknown
Orbital elements
Apogee altitude
17,089.852 km
Perigee altitude
221.447 km
Semi-major axis
15,033.787 km
Eccentricity
0.56102
Inclination
19.11°
RAAN
72.1303°
Arg. of periapsis
210.3343°
True anomaly
149.6716°
Mean anomaly
99.8076°
Eccentric anomaly
125.85897°
Mean motion
1.17744 °/min
Orbital period
305.75 mins
BSTAR
0.0010156
Loading maneuver chart data...
Computing Atmospheric mass density...
Loading historical data...
Loading historical data...
Loading historical data...
Loading historical data...
Loading historical data...
Loading historical data...
Loading historical data...
Other satellites on launch #35 in the year 2018 (2018-04-11 UTC)

Documentation

Showing up to 5 results
|